SCP
0 0 0 0 0 0 0 0 0 0 0 0 0 0 0 0 0 0 0 0 0 0 0 0 0 0 0 0 0 0 0 0 0 0 0 0 0 0 0 0 0 0 0 0
0 0 0 0 0 0 0 0 0 0 0 0 0 0 0 0 0 0 0 0 0 0 0 0 0 0 0 0 0 0 0 0 0 0 0 0 0 0 0 0 0 0 0 0
0 0 0 0 0 0 0 0 0 0 0 0 0 0 0 0 0 0 0 0 0 0 0 0 0 0 0 0 0 0 0 0 0 0 0 0 0 0 0 0 0 0 0 0
0 0 0 0 0 0 0 0 0 0 0 0 0 0 0 0 0 0 0 0 0 0 0 0 0 0 0 0 0 0 0 0 0 0 0 0 0 0 0 0 0 0 0 0
0 0 0 0 0 0 0 0 0 0 0 0 0 0 0 0 0 0 0 0 0 0 0 0 0 0 0 0 0 0 0 0 0 0 0 0 0 0 0 0 0 0 0 0
0 0 0 0 0 0 0 0 0 0 0 0 0 0 0 0 0 0 0 0 0 0 0 0 0 0 0 0 0 0 0 0 0 0 0 0 0 0 0 0 0 0 0 0
0 0 0 0 0 0 0 0 0 0 0 0 0 0 0 0 0 0 0 0 0 0 0 0 0 0 0 0 0 0 0 0 0 0 0 0 0 0 0 0 0 0 0 0
0 0 0 0 0 0 0 0 0 0 0 0 0 0 0 0 0 0 0 1 1 1 1 0 0 0 0 0 0 0 0 0 0 0 0 0 0 0 0 0 0 0 0 0
0 0 0 0 0 0 0 0 0 0 0 0 0 0 0 0 0 0 1 1 1 1 1 0 0 0 0 0 0 0 0 0 0 0 0 0 0 0 0 0 0 0 0 0
0 0 0 0 0 0 0 0 0 0 0 0 0 0 0 0 0 0 0 1 1 1 1 0 0 0 0 0 0 0 0 0 0 0 0 0 0 0 0 0 0 0 0 0
0 0 0 0 0 0 0 0 0 0 0 0 0 0 0 0 0 0 0 0 0 1 1 0 0 0 0 0 0 0 0 0 0 0 0 0 0 0 0 0 0 0 0 0
0 0 0 0 0 0 0 0 0 0 0 0 0 0 0 0 0 0 0 0 0 0 0 0 0 0 0 0 0 0 0 0 0 0 0 0 0 0 0 0 0 0 0 0
0 0 0 0 0 0 0 0 0 0 0 0 0 0 0 0 0 0 0 0 0 0 0 0 0 0 0 0 0 0 0 0 0 0 0 0 0 0 0 0 0 0 0 0
0 0 0 0 0 0 0 0 0 0 0 0 0 0 0 0 0 0 0 0 0 0 0 0 0 0 0 0 0 0 0 0 0 0 0 0 0 0 0 0 0 0 0 0
0 0 0 0 0 0 0 0 0 0 0 0 0 0 0 0 0 0 0 0 0 0 0 0 0 0 0 0 0 0 0 0 0 0 0 0 0 0 0 0 0 0 0 0
0 0 0 0 0 0 0 0 0 0 0 0 0 0 0 0 0 0 0 0 0 0 0 0 0 0 0 0 0 0 0 0 0 0 0 0 0 0 0 0 0 0 0 0
0 0 0 0 0 0 0 0 0 0 0 0 0 0 0 0 0 0 0 0 0 0 0 0 0 0 0 0 0 0 0 0 0 0 0 0 0 0 0 0 0 0 0 0
0 0 0 0 0 0 0 0 0 0 0 0 0 0 0 0 0 0 0 0 0 0 0 0 0 0 0 0 0 0 0 0 0 0 0 0 0 0 0 0 0 0 0 0
0 0 0 0 0 0 0 0 0 0 0 0 0 0 0 0 0 0 0 0 0 0 0 0 0 0 0 0 0 0 0 0 0 0 0 0 0 0 0 0 0 0 0 0
0 0 0 0 0 0 0 0 0 0 0 0 0 0 0 0 0 0 0 0 0 0 0 0 0 0 0 0 0 0 0 0 0 0 0 0 0 0 0 0 0 0 0 0
0 0 0 0 0 0 0 0 0 0 0 0 0 0 0 0 0 0 0 0 0 0 0 0 0 0 0 0 0 0 0 0 0 0 0 0 0 0 0 0 0 0 0 0
0 0 0 0 0 0 0 0 0 0 0 0 0 0 0 0 0 0 0 0 0 0 0 0 0 0 0 0 0 0 0 0 0 0 0 0 0 0 0 0 0 0 0 0
0 0 0 0 0 0 0 0 0 0 0 0 0 0 0 0 0 0 0 0 0 0 0 0 0 0 0 0 0 0 0 0 0 0 0 0 0 0 0 0 0 0 0 0
0 0 0 0 0 0 0 0 0 0 0 0 0 0 0 0 0 0 0 0 0 0 0 0 0 0 0 0 0 0 0 0 0 0 0 0 0 0 0 0 0 0 0 0
0 0 0 0 0 0 0 0 0 0 0 0 0 0 0 0 0 0 0 0 0 0 0 0 0 0 0 0 0 0 0 0 0 0 0 0 0 0 0 0 0 0 0 0
0 0 0 0 0 0 0 0 0 0 0 0 0 0 0 0 0 0 0 0 0 0 0 0 0 0 0 0 0 0 0 0 0 0 0 0 0 0 0 0 0 0 0 0
0 0 0 0 0 0 0 0 0 0 0 0 0 0 0 0 0 0 0 0 0 0 0 0 0 0 0 0 0 0 0 0 0 0 0 0 0 0 0 0 0 0 0 0
Wind_Speed
13 10 9 10 11 12 15 14 13 10 10 7 6 10 13 15 16 18 18 18 18 17 16 16 15 14 14 13 13 12 12 11 10 9 9 8 7 7 6 6 6 5 5 5
12 12 11 12 13 13 14 14 14 13 12 6 4 7 11 15 17 19 19 20 19 18 17 17 16 15 14 14 13 13 12 11 10 10 9 9 8 8 7 7 6 6 6 6
10 9 10 14 14 14 14 12 12 13 10 4 5 7 11 14 17 18 19 20 20 19 18 17 17 16 15 14 14 13 13 12 11 10 10 9 9 8 8 7 7 7 7 7
9 8 13 7 2 7 11 12 11 11 8 5 5 5 8 12 15 17 18 19 19 18 17 16 16 15 14 14 14 14 13 12 11 11 10 9 9 8 8 7 7 7 7 8
9 11 10 6 3 4 7 8 6 7 7 5 3 5 8 11 13 15 16 16 16 17 17 16 16 16 15 14 14 14 14 13 12 11 11 10 10 9 8 7 7 8 7 8
9 9 9 2 3 1 6 7 1 2 4 4 4 8 5 7 9 12 13 13 14 15 15 15 15 15 15 15 15 14 14 13 12 11 11 11 10 9 8 7 8 8 8 8
11 9 6 3 2 4 7 2 4 4 4 4 5 4 2 3 7 9 11 12 13 14 14 14 15 15 16 15 14 13 12 12 11 11 11 10 9 8 8 8 8 8 8 8
7 8 4 4 1 3 5 5 4 5 4 4 4 3 1 3 6 9 11 12 13 12 12 12 14 15 15 14 13 12 12 11 11 10 10 9 9 8 8 8 8 9 9 9
3 1 4 3 3 4 4 5 5 5 5 4 3 2 1 3 5 8 10 11 12 12 12 12 13 14 14 12 12 12 12 11 10 10 9 8 9 9 8 8 8 8 8 8
4 2 2 3 3 4 5 6 6 5 5 3 2 1 1 3 5 7 9 10 11 12 12 12 12 13 12 12 12 12 12 10 9 9 9 9 8 8 8 8 8 7 7 8
5 2 2 2 4 5 5 5 4 3 2 1 1 1 2 3 4 6 7 8 9 10 11 12 12 11 11 12 12 12 10 9 9 9 8 7 8 7 8 7 6 7 8 8
4 4 5 4 5 5 4 4 4 3 2 2 1 2 3 3 4 5 7 8 8 9 9 10 11 10 10 10 11 10 9 9 8 7 6 7 7 7 9 10 8 9 11 11
5 6 6 5 4 3 2 3 3 4 4 4 4 3 4 5 5 6 7 7 8 8 8 9 9 9 9 9 10 9 8 7 6 6 5 6 6 6 6 8 13 14 15 15
4 4 3 2 2 3 3 4 5 6 6 6 5 6 6 7 7 7 6 6 7 8 8 8 8 8 8 8 8 8 7 6 6 5 5 5 5 6 6 7 7 7 10 15
3 2 1 2 3 4 4 5 6 7 8 8 7 7 7 7 8 7 7 7 8 8 7 7 7 6 6 7 7 6 6 4 4 4 5 5 5 5 6 7 7 7 8 7
1 3 4 5 6 6 6 7 7 7 8 8 8 8 8 8 8 8 8 7 7 7 7 7 6 5 5 5 5 5 4 4 4 4 5 4 4 5 5 6 7 7 8 8
3 5 6 6 7 7 7 8 8 7 7 8 8 8 8 8 9 9 8 7 7 7 7 6 5 4 4 3 3 3 3 4 6 5 4 4 4 5 6 6 7 8 8 7
5 6 6 6 6 7 8 8 8 8 7 7 7 8 9 8 8 8 7 7 7 7 6 5 4 3 3 3 2 2 2 2 3 3 3 4 5 6 7 8 8 10 9 8
8 9 8 8 8 7 7 8 8 8 8 7 7 7 7 7 6 6 6 5 5 6 4 4 2 2 2 2 1 2 3 3 3 3 4 4 6 7 7 8 8 9 9 9
9 9 9 9 9 8 7 7 7 7 7 6 6 7 6 6 5 5 5 4 4 4 3 3 2 1 0 1 3 3 3 4 4 4 4 5 6 6 7 8 8 9 9 8
8 8 9 9 8 8 8 7 6 6 6 5 5 5 5 4 4 3 2 3 4 3 2 1 1 1 1 2 4 3 3 4 4 5 5 6 7 7 8 8 9 9 8 9
7 7 8 7 7 7 7 6 6 6 5 5 5 5 4 3 3 3 4 3 3 2 2 1 2 3 3 4 3 3 4 5 5 5 6 6 7 8 8 9 9 9 9 9
6 6 6 6 6 6 6 6 5 5 5 5 4 4 4 4 3 2 3 3 3 3 3 3 4 3 5 5 4 4 5 5 6 6 6 7 7 8 8 9 9 9 9 9
5 5 5 4 4 5 5 5 5 4 4 3 3 3 3 2 2 3 3 3 2 3 3 2 1 2 7 6 5 5 5 5 5 6 7 7 7 8 8 8 9 9 9 11
4 4 3 3 3 3 3 2 2 2 2 2 2 2 2 2 2 3 3 3 2 3 3 1 3 4 7 6 5 5 5 5 5 6 7 7 8 8 8 8 8 9 9 9
2 2 2 2 2 2 1 1 2 2 2 3 3 2 3 2 3 2 3 4 4 4 5 4 4 5 5 5 5 6 6 5 5 6 7 7 8 8 8 8 11 9 9 9
1 1 1 1 1 2 2 2 3 3 3 3 3 4 4 4 4 4 5 5 5 5 5 5 5 5 5 5 5 5 6 6 6 6 7 7 7 7 8 10 8 8 8 8
Wind_Direction
258 270 262 251 238 221 228 248 264 269 267 258 216 200 191 188 187 186 186 187 188 186 185 184 183 182 183 182 180 179 182 187 186 187 188 192 194 198 200 207 217 220 231 236
248 247 248 251 248 239 236 248 257 266 268 270 235 200 191 190 191 191 190 190 190 189 186 186 185 184 182 181 179 180 186 188 185 188 190 195 199 202 204 212 223 226 233 241
249 241 242 242 240 240 241 243 250 257 263 244 218 201 198 193 195 196 194 192 191 190 189 188 187 184 183 181 178 182 188 188 186 191 196 199 203 204 210 217 221 228 236 242
251 239 241 248 244 250 251 252 254 260 268 258 252 226 212 203 199 199 197 193 191 190 187 186 184 182 182 178 179 183 187 189 188 194 199 200 205 211 216 221 225 232 240 248
242 237 244 232 216 243 250 255 261 262 266 272 263 229 214 202 202 201 197 193 189 188 184 180 179 177 177 178 181 186 189 191 191 194 198 201 207 213 218 223 230 235 239 247
237 241 240 217 110 233 251 242 37 300 281 276 225 231 192 169 192 196 193 188 185 182 178 176 175 172 176 181 184 190 192 192 191 194 200 205 210 215 218 224 235 244 244 247
236 243 250 63 85 212 238 24 23 337 310 273 244 285 12 170 180 181 179 177 174 173 175 175 171 172 181 184 189 191 188 188 190 195 202 208 212 216 224 230 238 247 255 255
227 234 229 71 203 282 3 3 342 331 317 292 271 287 259 160 158 163 165 166 167 168 170 169 170 175 183 187 186 182 182 186 191 196 205 205 211 218 225 234 239 243 248 256
264 301 36 14 346 347 331 319 323 326 325 300 272 241 154 149 155 158 157 159 162 162 161 163 171 179 184 182 176 175 180 187 192 197 206 213 214 219 225 228 243 250 253 259
272 271 345 337 341 329 318 310 310 309 308 298 271 228 134 133 149 154 154 156 159 159 161 164 171 179 180 171 171 174 180 184 191 200 207 210 222 228 234 239 244 252 260 266
261 299 317 50 13 347 337 334 330 328 319 317 281 141 130 129 137 144 149 152 157 161 164 164 167 172 173 168 170 175 178 186 195 203 210 215 219 233 242 249 260 266 274 279
313 351 324 345 356 343 348 4 5 14 47 66 73 109 116 111 119 132 141 145 151 158 159 159 162 165 166 164 169 174 180 189 198 207 206 218 225 229 221 236 242 239 247 264
299 315 317 318 326 343 2 30 37 48 61 74 74 88 101 104 112 122 131 141 146 149 151 153 157 159 163 167 171 179 189 192 202 210 211 223 233 246 252 235 231 239 242 242
297 285 290 340 18 37 47 67 78 78 73 74 80 87 94 101 105 110 117 130 133 134 139 146 149 154 160 165 171 179 191 192 208 217 226 233 238 248 257 269 271 264 240 231
346 336 28 68 76 78 79 85 85 81 79 77 80 85 91 95 97 98 102 112 118 123 129 135 139 145 153 162 171 182 197 200 204 225 234 239 247 255 264 270 276 282 287 263
55 95 102 94 88 87 87 86 82 79 79 79 78 79 83 88 91 92 95 102 112 114 117 121 127 135 148 164 177 189 198 197 217 230 237 240 248 262 269 273 276 280 284 289
119 105 98 94 86 83 80 81 82 81 80 81 81 85 88 89 89 89 90 93 95 98 103 110 116 126 145 166 195 205 204 185 199 231 244 255 264 270 276 278 281 284 286 296
86 86 87 87 86 83 77 75 76 78 78 79 84 86 85 84 84 87 91 96 96 92 88 91 99 119 138 161 205 231 223 227 228 242 257 266 277 276 276 279 283 287 291 291
86 85 84 82 77 75 72 69 69 69 70 74 78 80 81 85 90 96 99 101 100 95 82 75 84 138 137 140 220 221 236 246 251 256 263 262 264 274 282 285 289 292 293 296
84 83 81 77 72 70 68 64 64 64 63 67 73 77 77 77 83 90 93 84 68 67 83 78 98 90 117 144 265 255 257 262 268 275 278 283 287 290 291 292 294 295 296 296
77 81 82 79 73 65 62 61 63 65 63 66 73 81 87 87 85 84 88 87 73 54 73 140 132 51 20 352 267 277 281 282 283 285 288 291 293 295 297 298 297 296 296 296
73 73 73 71 67 61 55 54 57 57 58 60 65 73 80 83 87 80 68 57 69 32 323 6 46 43 4 309 290 299 294 291 289 290 292 295 297 298 298 299 299 300 300 303
62 61 60 59 56 54 52 52 57 61 63 64 63 61 59 47 39 48 65 55 41 28 339 10 39 26 320 289 290 286 288 292 294 295 297 299 300 300 300 301 302 302 301 302
62 58 54 55 66 65 58 51 48 50 54 56 60 48 30 28 29 32 39 73 48 1 338 52 78 305 284 281 289 291 293 294 296 298 301 303 304 304 305 305 305 306 306 305
50 51 48 36 44 54 60 53 50 41 24 29 26 26 2 6 358 3 351 353 10 310 314 260 206 258 278 296 304 305 303 310 315 313 308 308 307 307 308 308 309 308 307 306
21 16 30 12 12 358 1 352 350 358 354 350 345 345 342 339 328 317 306 309 318 313 303 305 295 274 289 301 306 310 309 303 294 292 301 303 302 304 306 309 309 309 308 305
324 337 324 326 360 357 351 345 338 337 335 334 331 329 324 319 314 314 309 309 311 309 310 307 303 301 302 304 307 309 307 305 304 305 305 303 304 304 304 305 305 305 303 301